Find Helusi 1

NORAD ID: 55690 Int'l Des: 2023-025 Owner: EGYSA Country: EG operational
LEOCIRCULARRETROGRADESSO

リアルタイム位置

3D地球を読み込み中...

Helusi 1について

説明を読み込み中...

次回通過

Passes for default location (London). Set your location on the main map for personalized predictions.

高度履歴

Loading altitude history...

軌道要素

1 55690U 23025A 26119.94170061 .00006443 00000-0 27355-3 0 9996
2 55690 97.3480 195.5436 0001779 121.0721 239.0691 15.23415121176705
Epoch: Apr 29, 2026 • Age: 7 hours

現在のステータス

高度 525.0 km
速度 7.60 km/s
衛星直下点 -82.39°S, 40.21°W
打ち上げ日 Feb 24, 2023
運用期間 3.1 years
タイプ other

技術仕様

分類 Payload
質量 330.00 kg
乾燥質量 330.00 kg
総質量 330.00 kg
長さ 1.50 m
直径 1.00 m
スパン 4.00 m
形状 Box + 2 Pan
製造者 DFHZ
バスタイプ CAST-2000
フェーズステータス In Orbit
所有者/国 EGYSA/EG

Most Searched